Temp
29 28 29 31 31 32 31 31 27 25 27 34 33 38 38 39 39 39 39 43 44 42 43 43 45 48 49 51 55 56 58 60 63 63 63 64 65 65
27 29 30 29 29 31 31 30 30 27 25 33 33 35 36 38 38 37 39 41 42 41 42 42 43 44 45 47 49 52 54 57 59 62 62 62 63 64
27 28 27 28 28 29 31 29 28 28 25 29 33 34 33 33 34 35 37 37 39 38 40 40 42 42 43 43 44 45 47 48 53 57 60 61 62 63
25 27 27 29 27 29 28 27 27 29 26 24 30 29 30 31 32 33 34 37 36 35 37 38 40 41 41 41 41 42 43 43 45 46 50 56 60 61
26 25 27 27 25 26 26 26 27 27 26 25 25 29 29 30 29 32 32 32 36 35 34 35 38 40 40 40 40 40 41 41 41 41 41 42 44 54
26 27 29 27 25 25 25 24 25 24 24 24 25 25 27 29 29 26 27 31 32 33 32 34 34 37 39 38 39 39 39 38 39 39 39 39 40 41
25 26 28 30 30 28 26 23 24 23 23 23 22 23 23 23 22 25 25 27 32 29 28 33 29 33 35 36 37 38 38 38 37 38 38 38 38 40
20 22 25 27 26 26 27 26 26 21 20 20 20 19 20 22 23 23 23 23 24 29 25 30 30 28 32 34 35 36 36 37 36 37 37 37 38 38
13 16 20 23 22 21 22 23 22 24 23 21 18 18 18 20 21 21 21 22 22 25 23 25 28 26 30 35 37 35 34 35 35 35 35 36 37 36
15 14 11 16 23 19 15 16 15 18 21 23 20 19 20 22 21 21 21 23 26 25 22 19 25 23 27 34 34 34 34 34 34 34 35 35 36 36
15 17 14 17 28 26 16 13 12 14 20 23 23 23 23 24 23 20 16 17 17 22 21 18 22 20 25 28 29 32 31 32 32 32 33 34 36 36
24 24 27 24 27 26 18 16 12 12 13 13 14 16 18 19 20 18 17 14 14 16 18 15 18 17 16 25 25 28 27 29 30 30 31 32 33 34
20 20 23 25 25 24 22 19 16 15 13 13 13 12 13 14 15 16 18 16 15 14 18 16 16 15 16 18 22 25 25 25 26 26 28 29 31 31
15 15 18 23 22 23 20 20 18 12 12 10 10 9 9 11 13 15 18 18 19 17 19 18 15 14 13 14 16 21 22 24 24 22 23 26 27 29
15 19 21 20 18 13 20 18 9 8 6 6 5 7 9 12 15 15 17 18 18 19 21 18 16 15 14 13 13 17 17 20 21 20 21 22 22 24
2 2 5 11 1 1 5 8 8 8 7 7 7 8 11 11 11 13 12 13 12 13 17 17 17 16 13 15 15 16 18 14 18 19 20 21 23 24
-1 -1 1 0 1 3 6 6 8 10 8 8 7 7 7 8 7 10 10 10 8 8 10 13 15 16 16 15 14 16 16 15 17 18 18 17 21 23
4 -1 -3 -6 -2 3 4 6 7 5 7 7 5 5 4 4 5 7 7 6 5 6 7 9 10 9 11 15 19 14 15 13 16 17 17 15 16 20
2 -5 -4 -5 -0 3 4 2 4 4 1 4 3 2 1 3 2 3 3 4 4 5 7 9 7 5 2 0 11 18 11 13 14 13 16 15 14 17
-1 1 1 0 1 2 2 2 3 2 1 2 0 0 -2 0 1 2 2 -2 1 3 6 7 6 5 2 2 4 9 17 13 13 11 12 15 18 22
2 0 1 1 2 2 2 -1 -3 -1 -1 -3 -1 -3 -3 -2 0 -0 -1 -5 -3 3 2 4 7 8 9 10 4 5 10 16 16 13 13 13 13 16
7 7 6 5 4 3 2 -1 -2 -2 -1 -2 -0 -3 -3 -5 -2 -2 -2 -3 -0 0 2 5 8 8 6 5 2 3 6 10 14 17 18 17 13 11
9 10 11 9 8 5 4 3 1 3 3 3 2 2 -2 -2 1 -0 -2 -1 -1 0 2 3 5 6 4 4 3 3 3 6 8 8 11 17 20 21
MSLP
1025.54 1025.42 1025.13 1024.87 1024.67 1024.35 1024.03 1023.63 1023.25 1022.16 1020.51 1018.82 1018.79 1018.10 1017.72 1016.90 1016.13 1015.14 1014.09 1012.92 1012.00 1011.47 1010.73 1009.76 1008.26 1006.69 1005.66 1004.83 1004.13 1003.82 1004.93 1005.21 1004.81 1004.63 1005.13 1005.85 1006.94 1007.92
1026.10 1025.67 1025.37 1025.17 1024.98 1024.63 1024.20 1024.18 1023.83 1023.42 1022.09 1020.39 1019.70 1019.13 1018.24 1017.48 1016.58 1015.38 1014.20 1013.20 1012.47 1011.89 1010.86 1010.10 1008.97 1007.82 1006.87 1005.67 1004.35 1003.43 1003.19 1003.22 1003.41 1003.64 1003.99 1004.32 1005.19 1006.20
1026.50 1026.12 1025.85 1025.56 1025.20 1024.84 1024.55 1024.38 1024.00 1023.57 1022.72 1021.19 1020.42 1019.43 1018.76 1017.90 1016.75 1015.70 1014.59 1013.59 1012.94 1012.44 1011.38 1010.59 1009.35 1008.58 1007.89 1006.97 1006.15 1004.85 1003.85 1003.54 1003.01 1002.96 1003.22 1003.43 1003.85 1004.57
1026.75 1026.44 1026.15 1025.83 1025.50 1025.17 1024.94 1024.71 1024.32 1023.73 1023.19 1022.04 1020.90 1020.09 1019.31 1018.49 1017.45 1016.18 1015.20 1014.26 1013.79 1013.07 1012.09 1011.05 1010.15 1009.35 1008.04 1007.42 1006.91 1006.39 1005.28 1004.75 1004.21 1003.31 1003.27 1003.09 1003.25 1003.98
1027.39 1027.05 1026.60 1026.28 1025.94 1025.54 1025.25 1024.92 1024.56 1024.10 1023.58 1022.93 1021.97 1021.23 1020.31 1019.16 1017.83 1016.81 1015.91 1015.06 1014.25 1013.83 1012.62 1011.85 1010.93 1009.97 1009.51 1008.32 1008.07 1007.47 1006.58 1005.84 1006.28 1004.97 1004.07 1003.77 1003.69 1003.05
1027.74 1027.37 1026.85 1026.55 1026.25 1025.81 1025.50 1025.23 1024.83 1024.40 1023.86 1023.18 1022.46 1021.56 1020.62 1019.76 1018.85 1017.71 1016.17 1015.50 1014.66 1014.34 1013.58 1012.77 1011.78 1010.61 1009.97 1009.32 1009.15 1008.22 1007.74 1006.94 1007.54 1006.40 1005.46 1005.00 1003.96 1003.59
1028.13 1027.80 1027.25 1026.72 1026.48 1026.06 1025.74 1025.60 1025.18 1024.75 1024.24 1023.60 1022.93 1022.16 1021.18 1020.03 1019.40 1019.29 1018.11 1016.64 1015.10 1015.23 1014.61 1013.38 1012.68 1011.47 1010.36 1010.36 1009.92 1008.98 1008.50 1007.67 1007.22 1007.24 1005.88 1005.37 1005.04 1004.29
1028.88 1028.41 1027.85 1027.41 1027.22 1026.73 1026.25 1026.03 1025.59 1025.26 1024.96 1024.55 1024.01 1023.38 1022.65 1021.99 1021.10 1020.30 1019.30 1017.70 1016.19 1016.09 1015.72 1014.08 1013.83 1012.66 1011.91 1011.26 1010.75 1009.80 1008.46 1007.72 1007.05 1007.61 1006.82 1005.90 1005.77 1005.48
1029.40 1029.02 1028.40 1027.95 1027.71 1027.47 1027.08 1026.69 1026.43 1025.91 1025.62 1025.33 1025.02 1024.55 1023.78 1023.10 1022.37 1021.03 1020.30 1019.36 1018.43 1017.94 1016.80 1015.06 1014.45 1013.67 1012.93 1012.01 1011.26 1010.93 1010.40 1009.58 1008.81 1008.19 1007.68 1007.00 1006.39 1005.85
1029.74 1029.55 1029.07 1028.46 1027.54 1027.79 1027.61 1027.20 1026.99 1026.74 1026.09 1025.59 1025.39 1025.08 1024.60 1023.81 1023.33 1022.52 1021.55 1020.20 1018.58 1018.54 1018.33 1016.69 1015.36 1014.62 1013.54 1012.57 1012.10 1011.76 1011.05 1010.24 1009.98 1009.64 1009.32 1008.53 1007.75 1006.75
1029.78 1029.38 1029.31 1028.65 1027.63 1027.51 1027.71 1027.52 1027.37 1027.18 1026.70 1026.06 1025.64 1025.22 1024.83 1024.16 1023.60 1022.88 1021.91 1020.68 1019.52 1019.04 1019.25 1018.69 1017.19 1015.85 1014.17 1013.34 1012.78 1012.37 1011.93 1011.32 1010.67 1010.04 1010.04 1009.23 1007.75 1007.45
1029.47 1029.26 1028.76 1028.58 1028.03 1027.79 1028.02 1027.95 1027.84 1027.81 1027.32 1026.59 1026.14 1025.67 1025.24 1024.64 1024.09 1023.68 1023.14 1022.40 1021.72 1020.39 1020.39 1019.78 1018.48 1017.90 1015.70 1014.03 1013.64 1013.02 1012.38 1011.70 1011.13 1010.73 1009.97 1009.08 1008.49 1007.83
1030.01 1029.85 1029.40 1029.00 1028.51 1028.39 1028.35 1028.30 1028.30 1028.20 1027.63 1027.22 1026.79 1026.28 1025.77 1025.31 1024.78 1024.30 1023.78 1023.47 1022.88 1022.47 1022.04 1021.20 1019.98 1019.10 1018.19 1016.29 1014.75 1014.04 1013.56 1012.82 1012.24 1011.46 1010.68 1010.22 1009.66 1008.87
1030.61 1030.49 1030.19 1029.60 1029.42 1028.92 1028.99 1028.90 1028.90 1028.87 1028.43 1028.05 1027.57 1027.09 1026.49 1025.93 1025.47 1025.01 1024.28 1023.78 1023.30 1023.03 1022.32 1021.84 1021.08 1020.51 1019.58 1017.93 1016.38 1015.24 1014.48 1013.74 1013.49 1012.92 1012.03 1011.07 1010.08 1009.19
1030.99 1030.50 1030.35 1030.36 1030.33 1030.50 1029.61 1029.60 1030.00 1029.68 1029.31 1028.94 1028.70 1028.33 1027.86 1027.16 1026.24 1025.34 1024.65 1024.14 1023.49 1023.01 1022.44 1022.21 1021.74 1020.88 1020.28 1019.35 1018.27 1016.87 1015.80 1014.51 1014.14 1013.44 1012.56 1011.71 1011.18 1009.80
1031.95 1032.06 1031.79 1031.36 1031.82 1031.69 1031.19 1030.86 1030.53 1030.17 1029.94 1029.75 1029.51 1029.06 1028.44 1027.81 1027.15 1026.45 1025.59 1024.74 1023.86 1023.27 1023.07 1022.71 1022.04 1021.22 1020.08 1019.32 1018.57 1017.45 1016.89 1016.60 1015.40 1014.58 1013.56 1012.52 1011.31 1010.52
1032.14 1032.39 1032.42 1032.39 1032.29 1031.95 1031.65 1031.30 1030.94 1030.61 1030.43 1030.25 1029.94 1029.51 1029.02 1028.50 1028.02 1027.48 1026.91 1026.20 1025.64 1024.73 1023.55 1022.61 1022.18 1021.55 1020.40 1019.45 1018.55 1018.02 1017.28 1016.52 1015.95 1015.04 1013.96 1012.37 1011.06 1010.40
1031.39 1032.53 1032.79 1032.74 1032.51 1032.14 1031.81 1031.43 1031.13 1030.97 1030.86 1030.66 1030.48 1030.23 1029.83 1029.36 1028.81 1028.16 1027.68 1027.24 1026.54 1025.73 1024.78 1023.92 1023.04 1021.83 1020.50 1019.41 1018.81 1018.27 1017.74 1017.35 1016.17 1015.04 1014.22 1013.08 1011.29 1010.08
1031.25 1032.06 1032.34 1032.40 1032.18 1031.91 1031.77 1031.64 1031.32 1031.11 1031.14 1030.81 1030.68 1030.53 1030.27 1029.76 1029.37 1028.83 1028.36 1027.79 1026.94 1026.14 1025.38 1024.72 1023.96 1023.29 1022.32 1021.51 1019.92 1019.15 1018.39 1017.27 1016.40 1015.57 1014.68 1013.75 1012.51 1010.60
1030.53 1031.32 1031.57 1031.62 1031.57 1031.50 1031.33 1031.31 1031.07 1030.99 1030.91 1030.67 1030.55 1030.36 1030.23 1030.03 1029.48 1029.11 1028.71 1028.37 1027.66 1026.76 1025.70 1025.01 1024.59 1024.15 1023.60 1022.58 1021.20 1019.43 1019.02 1017.82 1016.92 1015.81 1014.80 1013.99 1012.73 1011.21
1030.04 1030.45 1030.42 1030.56 1030.70 1030.67 1030.60 1030.60 1030.62 1030.54 1030.41 1030.34 1030.11 1029.99 1029.80 1029.78 1029.34 1029.03 1028.66 1028.19 1027.75 1027.00 1026.11 1025.20 1024.68 1024.29 1023.43 1022.37 1021.31 1019.83 1018.51 1018.19 1017.45 1016.31 1014.79 1013.51 1011.99 1010.77
1028.87 1029.18 1029.30 1029.51 1029.67 1029.78 1029.80 1029.84 1029.91 1029.84 1029.69 1029.63 1029.35 1029.20 1029.07 1029.16 1028.87 1028.56 1028.25 1027.91 1027.38 1026.82 1026.07 1025.20 1024.39 1023.78 1023.15 1022.43 1021.47 1020.35 1019.03 1017.36 1016.23 1015.47 1014.64 1013.68 1012.62 1010.84
1027.87 1028.19 1028.35 1028.48 1028.67 1028.91 1029.03 1029.11 1029.13 1028.91 1028.67 1028.48 1028.32 1028.11 1028.07 1028.20 1027.78 1027.67 1027.53 1027.18 1026.82 1026.29 1025.65 1024.84 1024.17 1023.66 1023.08 1022.37 1021.56 1020.41 1019.33 1018.09 1016.81 1014.68 1012.94 1012.62 1011.84 1010.60
Wind_Speed
8 6 5 7 6 6 4 5 5 6 7 4 9 13 12 12 17 16 15 24 22 25 25 27 28 25 16 17 19 17 17 19 34 34 31 30 32 33
7 8 9 7 7 6 6 6 5 5 6 9 11 14 14 13 17 16 16 22 21 26 24 26 27 28 25 23 14 10 14 18 16 30 31 31 34 34
8 8 9 8 7 7 6 6 6 6 7 9 10 12 14 16 16 14 14 14 11 27 24 25 23 26 27 27 25 23 18 14 10 20 29 33 33 34
9 10 10 9 9 8 7 9 8 8 8 12 10 11 14 16 16 15 13 12 10 25 25 25 23 26 27 29 28 26 26 26 17 13 10 17 28 31
7 9 9 9 9 7 6 7 7 7 7 6 8 9 9 12 13 13 12 13 7 28 23 25 24 24 28 29 30 28 29 27 25 22 20 17 15 17
8 8 9 7 6 7 8 8 8 7 7 6 8 9 9 13 10 13 14 11 8 11 17 21 21 21 27 30 29 31 29 28 25 23 23 21 17 15
8 8 8 13 17 13 6 7 9 8 8 8 9 9 11 14 15 12 11 13 7 12 12 8 11 9 11 20 23 30 29 29 29 27 27 26 23 18
7 8 8 10 13 16 15 15 13 9 11 9 9 11 14 12 13 11 11 12 8 11 13 7 11 9 9 9 29 29 32 33 33 30 30 28 24 22
5 5 6 6 7 9 12 13 13 16 12 8 11 10 11 12 13 13 14 12 7 8 13 6 11 9 8 10 26 29 27 28 29 30 30 28 25 21
4 4 3 7 8 8 7 8 8 9 10 9 8 7 8 9 11 10 12 12 6 6 15 6 11 10 8 7 22 29 27 29 28 28 27 27 25 20
3 6 3 7 16 18 8 9 8 9 12 18 17 18 18 19 18 8 11 11 8 5 12 7 10 11 7 6 11 26 28 27 28 28 28 28 28 21
5 6 13 10 15 16 8 8 9 9 10 11 10 12 14 14 19 11 9 9 9 6 11 10 8 10 7 3 9 10 13 25 27 28 29 30 29 11
4 4 5 12 13 14 13 9 10 9 10 8 8 8 8 9 9 10 10 7 8 5 10 9 6 9 6 8 7 8 12 12 12 16 25 27 27 22
2 2 4 11 11 12 8 14 14 9 7 7 7 9 9 9 10 10 10 10 7 6 8 10 6 8 8 7 7 8 12 10 10 12 12 19 22 24
0 5 9 10 11 8 11 12 8 5 4 6 6 6 7 8 11 10 10 12 9 9 9 11 9 11 7 7 8 8 12 11 11 12 12 12 12 11
4 3 3 4 4 3 4 5 3 3 5 5 5 5 6 7 8 9 9 10 8 9 12 13 14 13 8 8 8 7 8 8 12 11 13 11 11 9
3 2 3 3 3 3 2 3 3 4 5 5 5 6 7 7 8 8 8 8 8 10 11 13 14 14 10 10 6 8 9 11 10 12 13 14 11 10
3 1 1 1 2 1 2 2 2 2 2 3 3 4 5 6 7 7 6 7 8 8 9 10 11 12 10 5 7 9 8 11 12 13 12 11 14 13
3 2 3 3 3 3 3 2 2 1 1 1 1 2 3 3 4 5 6 7 8 8 8 8 9 10 10 9 8 10 14 11 10 11 11 11 13 15
3 4 4 4 4 4 3 3 2 2 2 2 2 2 2 2 2 4 5 4 7 7 9 8 8 9 9 8 10 14 21 13 11 12 12 11 13 24
4 4 4 4 4 4 4 4 4 3 3 3 3 3 3 2 3 3 4 4 4 5 9 9 8 12 9 9 8 9 10 18 18 14 14 12 11 10
4 4 4 4 4 4 4 4 4 4 4 4 5 4 4 4 5 5 4 3 4 5 7 8 9 9 9 9 10 13 11 13 21 22 21 16 9 9
5 5 4 4 4 4 4 4 5 6 5 5 5 5 3 5 5 5 6 5 5 6 7 9 9 8 8 9 10 11 15 14 12 17 15 19 20 24
Wind_Direction
39 21 27 26 7 18 349 356 345 328 320 334 339 346 343 338 336 340 330 337 345 359 352 353 9 11 331 286 267 263 250 230 222 216 209 213 214 215
32 23 24 14 9 10 351 6 352 335 297 338 327 329 339 338 341 342 342 339 355 357 359 359 16 21 16 16 352 299 271 250 235 217 210 211 210 215
24 26 19 15 16 13 12 3 1 340 326 318 324 335 341 341 342 346 348 349 11 358 358 4 15 22 23 27 27 26 14 14 298 236 221 212 210 216
14 20 19 16 14 9 12 8 2 345 328 327 329 340 344 346 338 348 348 348 15 356 352 6 12 27 25 26 26 29 34 26 22 37 344 244 222 215
14 8 7 17 12 1 13 6 1 344 335 326 327 333 340 347 344 352 352 348 10 4 348 4 2 26 29 29 27 25 33 38 22 28 40 37 11 250
23 13 17 20 11 2 19 3 1 353 347 344 345 339 351 352 353 353 350 352 347 7 347 9 356 6 31 26 25 26 27 34 27 28 30 19 27 24
20 16 8 27 24 23 24 9 10 10 6 3 2 357 358 357 3 342 343 338 345 19 343 3 349 353 14 24 19 21 22 26 29 22 26 23 14 18
13 1 1 18 22 24 28 29 26 24 17 12 4 6 0 356 348 345 347 349 351 18 344 338 1 346 356 18 22 17 18 19 22 14 16 23 19 11
11 359 359 3 34 23 18 29 30 28 26 21 12 7 357 350 350 345 349 344 331 10 347 329 6 341 342 3 21 19 18 21 17 14 12 11 12 15
3 346 359 347 14 33 3 13 14 17 14 17 15 5 4 356 6 343 341 334 316 44 7 336 353 337 320 358 11 15 14 16 18 13 10 7 6 12
351 347 50 355 20 27 17 13 4 8 2 15 16 15 15 13 19 357 7 3 350 11 15 332 351 328 319 345 358 8 7 8 8 10 5 5 6 6
30 22 20 19 27 26 27 18 13 354 349 354 0 3 6 4 10 15 4 6 357 334 359 346 343 355 324 330 348 2 356 0 3 2 360 1 360 358
37 18 7 27 25 33 37 31 23 358 359 3 0 1 4 6 2 356 2 1 359 347 338 355 327 345 329 314 320 358 352 352 355 352 354 354 354 356
36 3 7 36 30 36 37 37 29 11 12 10 8 5 359 355 350 347 348 350 345 350 338 1 337 345 330 310 333 333 344 347 354 348 345 342 345 348
146 58 50 42 37 20 39 40 17 11 3 23 10 357 343 334 340 347 353 356 347 4 0 357 351 334 330 311 306 323 340 338 353 341 340 341 333 337
42 45 28 51 34 0 6 9 360 13 21 18 360 334 342 356 358 354 348 349 346 350 357 0 353 341 322 319 315 319 340 342 332 337 331 325 326 330
111 40 26 19 360 356 348 350 3 21 28 13 8 1 1 359 359 356 359 353 357 341 341 346 350 343 324 309 317 337 335 334 333 330 334 324 324 321
75 115 286 258 257 281 317 331 345 359 3 3 360 1 359 356 352 353 359 353 344 338 334 339 343 347 349 331 327 331 334 328 326 330 329 324 315 320
132 195 215 215 241 245 257 253 276 268 296 294 322 338 333 328 347 349 349 349 344 338 333 337 345 352 344 329 297 325 328 325 324 323 323 319 308 305
168 194 220 218 228 228 238 241 264 281 275 263 268 274 288 295 322 340 343 329 329 329 329 335 340 341 330 313 306 305 319 317 325 319 315 305 293 292
206 216 217 216 224 230 237 242 240 258 254 272 263 257 263 269 283 283 301 296 289 328 327 323 319 305 300 298 304 305 310 317 318 315 311 309 304 306
206 212 220 220 223 225 235 236 251 256 259 250 255 256 254 236 260 267 276 292 308 303 301 302 315 320 324 320 309 309 311 317 320 318 313 302 301 298
210 213 223 223 225 229 236 234 238 257 251 251 256 261 237 257 247 249 264 262 276 299 309 315 319 318 314 312 305 309 314 318 322 325 318 319 313 307